Икей

Россия / Иркутская область     54°11′22″N   100°04′40″E
темп.,
°C
ветер,
м/с
пор.,
м/с
влажн.,
%
обл.,
%
осадки,
мм/ч
давл.,
гПа
погр.,
м
12 мая, ср
ср1223:00+7ссз226161 0.0 101612
02:00+4ссз228526 0.0 101718
05:00+3ссз249557 0.0 101773
08:00+3ссв3596100 0.4 1018619
11:00+3ссз2493100 1.3 1019397
14:00+8з245441 1.4 10171539
17:00+11ссз343369 0.0 10152405
20:00+8с364648 0.0 1016217
13 мая, чт
чт1323:00+3с225468 0.0 101816
02:00+1в116599 0.0 101911
05:000з116596 0.0 101910
08:00+4ссв125386 0.0 1020298
11:00+9ссв2338100 0.0 10182179
14:00+10св3431100 0.0 10162524
17:00+11всв442989 0.0 10162464
20:00+8в35431 0.0 1017130
14 мая, пт
пт1423:00+3вюв23530 0.0 101938
02:00+1юв22610 0.0 101816
05:00−1юв11650 0.0 101811
08:00+5юв24520 0.0 1016275
11:00+11ююв34355 0.0 1013897
14:00+16ююв122843 0.0 10111199
17:00+17в2227100 0.0 10091083
20:00+13вюв334475 0.0 100953
15 мая, сб
сб1523:00+8с114888 0.0 101110
02:00+7ссз61290100 0.0 1014752
05:00+6з3991100 3.0 1017893
08:00+6з2585100 3.1 1018530
11:00+10з4866100 0.1 10161338
14:00+11зсз4858100 0.4 10141403
17:00+10сз41275100 2.2 1013925
20:00+9зсз71778100 2.8 10151634
16 мая, вс
вс1623:00+9зсз81678100 0.2 10161398
02:00+9зсз61386100 0.9 10171289
05:00+8сз3792100 1.4 1018461
08:00+4всв2293100 2.6 1020184
11:00+8юв238986 0.1 1017320
14:00+15ююв3563100 0.1 1011622
17:00+15ссв3364100 0.0 1010623
20:00+11ссв3582100 0.0 1011238